Home > Weather > Leicester > Past weeks

Flag for United Kingdom Past Weather in Leicester, England, United Kingdom — Yesterday and Last 2 Weeks

Now
55 °F

Sunny.


Feels Like: 53 °F
Forecast: 49 / 74 °F
Wind: 8 mph from Southwest

Location: East Midlands

Current Time: Aug 26, 2016 at 8:01:42 AM

Latest Report: Aug 26, 2016 at 7:20 AM


Visibility: 10 mi

Pressure: 30.01 "Hg

Humidity: 94%

Dew Point: 54 °F

Location of LeicesterLocation

Past Weather in Leicester — Graph

°F

Leicester Temperature Yesterday

Maximum temperature yesterday: 66 °F (at 3:50 PM)
Minimum temperature yesterday: 59 °F (at 4:20 AM)
Average temperature yesterday: 62 °F

High & Low Weather Summary for the Past Weeks

 TemperatureHumidityPressure
High84 °F (Aug 23, 3:50 PM)100% (Aug 17, 4:50 AM)30.33 "Hg (Aug 17, 4:50 AM)
Low48 °F (Aug 15, 6:20 AM)39% (Aug 17, 5:50 PM)29.53 "Hg (Aug 20, 6:50 AM)
Average63 °F77%30.03 "Hg
* Reported Aug 11 6:20 AM — Aug 26 6:50 AM, Leicester, Weather by CustomWeather, © 2016

Note: Actual official high and low records may vary slightly from our data, if they occured in-between our weather recording intervals... More about our weather records

Advertising

Leicester Weather History for the Previous 24 Hours

Scroll right to see more
 ConditionsComfort  
Time TempWeatherWind HumidityBarometerVisibility
6:50 AM
Fri, Aug 26
55 °FPassing clouds.8 mph94%30.01 "HgN/A
5:50 AM57 °FPassing clouds.8 mph94%29.98 "HgN/A
5:20 AM57 °FPassing clouds.12 mph100%29.98 "HgN/A
4:50 AM57 °FPassing clouds.8 mph100%29.98 "HgN/A
4:20 AM59 °FPassing clouds.7 mph94%29.98 "HgN/A
3:50 AM57 °FPassing clouds.8 mph100%29.98 "HgN/A
3:20 AM59 °FPartly cloudy.6 mph94%29.95 "HgN/A
2:50 AM59 °FPassing clouds.5 mph94%29.95 "HgN/A
2:20 AM59 °FPassing clouds.5 mph94%29.95 "HgN/A
1:50 AM59 °FLight rain. Passing clouds.6 mph94%29.95 "HgN/A
1:20 AM59 °FLight rain. Passing clouds.3 mph94%29.95 "Hg6 mi
12:50 AM59 °FPassing clouds.7 mph94%29.98 "HgN/A
12:20 AM59 °FPassing clouds.7 mph94%29.98 "HgN/A
11:50 PM
Thu, Aug 25
59 °FLight rain. Passing clouds.9 mph94%29.95 "HgN/A
11:20 PM61 °FRain. Passing clouds.15 mph94%29.98 "Hg2 mi
10:50 PM64 °FRain. Passing clouds.6 mph94%29.95 "Hg1 mi
10:20 PM64 °FRain. Passing clouds.3 mph94%29.95 "Hg1 mi
9:50 PM64 °FFog.No wind94%29.95 "Hg2 mi
9:20 PM64 °FDrizzle. Low clouds.6 mph94%29.95 "Hg2 mi
8:20 PM64 °FDrizzle. Low clouds.6 mph94%29.98 "Hg2 mi
7:50 PM64 °FPartly sunny.5 mph94%29.98 "Hg3 mi
7:20 PM64 °FPartly sunny.3 mph94%29.95 "Hg3 mi
6:50 PM66 °FPartly sunny.2 mph88%29.95 "Hg4 mi
6:20 PM66 °FPartly sunny.3 mph88%29.95 "Hg3 mi
5:50 PM66 °FPartly sunny.2 mph88%29.95 "Hg3 mi
5:20 PM66 °FPartly sunny.3 mph88%29.98 "Hg3 mi
4:50 PM66 °FPartly sunny.3 mph88%29.98 "Hg3 mi
4:20 PM66 °FPartly sunny.2 mph88%29.98 "Hg3 mi
3:50 PM66 °FFog.8 mph88%29.98 "Hg3 mi
3:20 PM64 °FFog.7 mph94%29.98 "Hg3 mi
2:50 PM63 °FFog.6 mph100%30.01 "Hg2 mi
2:20 PM63 °FFog.6 mph100%30.01 "Hg2 mi
1:50 PM64 °FLight rain. Low clouds.3 mph94%30.04 "Hg4 mi
1:20 PM63 °FLight rain. Low clouds.3 mph94%30.04 "Hg4 mi
12:50 PM63 °FLow clouds.5 mph94%30.01 "Hg4 mi
12:20 PM63 °FLow clouds.5 mph94%30.01 "Hg4 mi
11:50 AM63 °FLow clouds.6 mph94%30.01 "Hg4 mi
11:20 AM63 °FFog.5 mph94%30.04 "Hg3 mi
10:50 AM63 °FFog.6 mph94%30.04 "Hg3 mi
10:20 AM61 °FFog.7 mph100%30.04 "Hg2 mi
9:50 AM61 °FFog.6 mph100%30.04 "Hg1 mi
9:20 AM61 °FFog.7 mph100%30.04 "Hg1 mi
8:50 AM61 °FFog.6 mph100%30.04 "Hg1 mi
8:20 AM61 °FFog.6 mph94%30.04 "Hg2 mi
Weather by CustomWeather, © 2016

See weather overviewHow to use our weather pages